Volver al catálogo

THORAD AGENA D DEB

ActivoLEO
NORAD 6766·DEBRIS·🇺🇸 United States

Lanzado Apr 8, 1970 desde Vandenberg Space Force Base

Loading…

Próximos Pases (próximas 24 horas)

TLE

ActualizadoSource: Space-Track

Época: Sep 13, 2026, 16:27 UTC

1 06766U 70025NH  26256.68568984  .00001001  00000-0  58917-3 0  9999
2 06766 100.1585 314.2548 0075668 210.7062 148.9665 14.09441516847962

Sigue THORAD AGENA D DEB en tiempo real con AllMySat

Download on the App Store